Time,TemperatureF,DewpointF,PressureIn,WindDirection,WindDirectionDegrees,WindSpeedMPH,WindSpeedGustMPH,Humidity,HourlyPrecipIn,Conditions,Clouds,dailyrainin,SoftwareType,DateUTC
2013-04-27 00:02:00,45.0,43.0,30.26,East,84,1.0,7.0,94,0.03,,,0.57,,2013-04-27 05:02:00,
2013-04-27 00:12:00,45.0,43.0,30.26,East,84,1.0,7.0,94,0.03,,,0.57,,2013-04-27 05:12:00,
2013-04-27 00:22:00,45.0,43.0,30.26,ENE,76,1.0,7.0,94,0.02,,,0.57,,2013-04-27 05:22:00,
2013-04-27 00:32:00,45.0,43.0,30.26,ENE,72,2.0,6.0,94,0.03,,,0.59,,2013-04-27 05:32:00,
2013-04-27 00:42:00,45.0,43.0,30.26,ENE,72,2.0,6.0,94,0.03,,,0.59,,2013-04-27 05:42:00,
2013-04-27 00:52:00,45.0,43.0,30.26,ENE,74,1.0,7.0,94,0.03,,,0.60,,2013-04-27 05:52:00,
2013-04-27 01:01:00,45.0,43.0,30.26,ENE,74,0.0,4.0,94,0.02,,,0.60,,2013-04-27 06:01:00,
2013-04-27 01:12:00,45.0,43.0,30.26,ENE,74,0.0,4.0,94,0.02,,,0.60,,2013-04-27 06:12:00,
2013-04-27 01:22:00,45.0,43.0,30.25,East,88,3.0,6.0,94,0.03,,,0.61,,2013-04-27 06:22:00,
2013-04-27 01:32:00,45.0,43.0,30.25,East,88,3.0,8.0,94,0.02,,,0.61,,2013-04-27 06:32:00,
2013-04-27 01:41:00,45.0,43.0,30.25,East,88,3.0,8.0,94,0.02,,,0.61,,2013-04-27 06:41:00,
2013-04-27 01:52:00,45.0,43.0,30.24,East,90,1.0,6.0,94,0.01,,,0.61,,2013-04-27 06:52:00,
2013-04-27 02:01:00,45.0,43.0,30.24,East,101,1.0,5.0,94,0.06,,,0.66,,2013-04-27 07:01:00,
2013-04-27 02:11:00,45.0,43.0,30.24,East,101,1.0,5.0,94,0.06,,,0.66,,2013-04-27 07:11:00,
2013-04-27 02:21:00,45.0,43.0,30.24,ENE,78,1.0,6.0,94,0.09,,,0.70,,2013-04-27 07:21:00,
2013-04-27 02:32:00,45.0,43.0,30.22,East,100,2.0,6.0,94,0.13,,,0.74,,2013-04-27 07:32:00,
2013-04-27 02:42:00,45.0,43.0,30.22,East,100,2.0,6.0,94,0.13,,,0.74,,2013-04-27 07:42:00,
2013-04-27 02:52:00,45.0,43.0,30.21,ENE,64,2.0,7.0,94,0.15,,,0.76,,2013-04-27 07:52:00,
2013-04-27 03:01:00,45.0,43.0,30.20,NE,46,3.0,9.0,94,0.11,,,0.77,,2013-04-27 08:01:00,
2013-04-27 03:11:00,45.0,43.0,30.20,NE,46,3.0,9.0,94,0.11,,,0.77,,2013-04-27 08:11:00,
2013-04-27 03:21:00,45.0,43.0,30.20,ESE,103,0.0,7.0,94,0.07,,,0.77,,2013-04-27 08:21:00,
2013-04-27 03:33:00,45.0,43.0,30.20,SE,124,1.0,5.0,94,0.04,,,0.78,,2013-04-27 08:33:00,
2013-04-27 03:41:00,45.0,43.0,30.20,SE,124,1.0,5.0,94,0.04,,,0.78,,2013-04-27 08:41:00,
2013-04-27 03:52:00,45.0,43.0,30.19,NE,51,1.0,7.0,94,0.04,,,0.80,,2013-04-27 08:52:00,
2013-04-27 04:01:00,45.0,43.0,30.19,ENE,75,2.0,7.0,94,0.07,,,0.84,,2013-04-27 09:01:00,
2013-04-27 04:11:00,45.0,43.0,30.19,ENE,75,2.0,7.0,94,0.07,,,0.84,,2013-04-27 09:11:00,
2013-04-27 04:21:00,45.0,43.0,30.19,East,82,2.0,7.0,94,0.10,,,0.85,,2013-04-27 09:21:00,
2013-04-27 04:33:00,45.0,43.0,30.19,East,101,3.0,8.0,94,0.11,,,0.87,,2013-04-27 09:33:00,
2013-04-27 04:42:00,45.0,43.0,30.19,East,101,3.0,8.0,94,0.11,,,0.87,,2013-04-27 09:42:00,
2013-04-27 04:53:00,45.0,43.0,30.19,ENE,69,0.0,8.0,94,0.12,,,0.90,,2013-04-27 09:53:00,
2013-04-27 05:02:00,45.0,43.0,30.19,NE,44,1.0,6.0,94,0.10,,,0.92,,2013-04-27 10:02:00,
2013-04-27 05:12:00,45.0,43.0,30.19,NE,44,1.0,6.0,94,0.10,,,0.92,,2013-04-27 10:12:00,
2013-04-27 05:22:00,45.0,43.0,30.18,East,80,1.0,8.0,94,0.09,,,0.81,,2013-04-27 10:22:00,
2013-04-27 05:32:00,45.0,43.0,30.19,ENE,60,0.0,2.0,94,0.08,,,0.82,,2013-04-27 10:32:00,
2013-04-27 05:42:00,45.0,43.0,30.19,ENE,60,0.0,2.0,94,0.08,,,0.82,,2013-04-27 10:42:00,
2013-04-27 05:52:00,45.0,44.0,30.18,ENE,60,0.0,0.0,95,0.05,,,0.82,,2013-04-27 10:52:00,
2013-04-27 06:02:00,45.0,44.0,30.18,ENE,57,0.0,3.0,95,0.04,,,0.83,,2013-04-27 11:02:00,
2013-04-27 06:11:00,45.0,43.0,30.19,NE,56,0.0,3.0,94,0.03,,,0.83,,2013-04-27 11:11:00,
2013-04-27 06:22:00,45.0,43.0,30.19,NE,56,0.0,3.0,94,0.03,,,0.83,,2013-04-27 11:22:00,
2013-04-27 06:31:00,45.0,43.0,30.19,ENE,57,0.0,0.0,94,0.04,,,0.85,,2013-04-27 11:31:00,
2013-04-27 06:41:00,45.0,43.0,30.19,ENE,57,0.0,0.0,94,0.04,,,0.85,,2013-04-27 11:41:00,
2013-04-27 06:52:00,45.0,44.0,30.19,ENE,57,0.0,3.0,95,0.08,,,0.89,,2013-04-27 11:52:00,
2013-04-27 07:01:00,45.0,44.0,30.19,ENE,57,0.0,2.0,95,0.10,,,0.92,,2013-04-27 12:01:00,
2013-04-27 07:11:00,45.0,44.0,30.19,ENE,57,0.0,2.0,95,0.10,,,0.92,,2013-04-27 12:11:00,
2013-04-27 07:22:00,45.0,44.0,30.19,ENE,57,0.0,3.0,95,0.13,,,0.93,,2013-04-27 12:22:00,
2013-04-27 07:32:00,45.0,44.0,30.19,NE,56,0.0,2.0,95,0.14,,,0.96,,2013-04-27 12:32:00,
2013-04-27 07:42:00,45.0,44.0,30.19,NE,56,0.0,2.0,95,0.14,,,0.96,,2013-04-27 12:42:00,
2013-04-27 07:52:00,45.0,44.0,30.19,NE,44,0.0,5.0,95,0.12,,,0.98,,2013-04-27 12:52:00,
2013-04-27 08:02:00,45.0,44.0,30.20,NE,44,0.0,4.0,95,0.09,,,0.99,,2013-04-27 13:02:00,
2013-04-27 08:11:00,45.0,44.0,30.20,NE,44,0.0,4.0,95,0.09,,,0.99,,2013-04-27 13:11:00,
2013-04-27 08:21:00,45.0,44.0,30.20,NE,42,1.0,5.0,95,0.06,,,0.99,,2013-04-27 13:21:00,
2013-04-27 08:32:00,45.0,44.0,30.19,NE,42,0.0,4.0,95,0.03,,,0.99,,2013-04-27 13:32:00,
2013-04-27 08:42:00,45.0,44.0,30.19,NE,42,0.0,4.0,95,0.03,,,0.99,,2013-04-27 13:42:00,
2013-04-27 08:52:00,45.0,44.0,30.19,NE,41,1.0,6.0,95,0.02,,,1.00,,2013-04-27 13:52:00,
2013-04-27 09:02:00,45.0,44.0,30.19,NE,40,0.0,5.0,95,0.01,,,1.00,,2013-04-27 14:02:00,
2013-04-27 09:11:00,45.0,44.0,30.19,NE,40,0.0,5.0,95,0.01,,,1.00,,2013-04-27 14:11:00,
2013-04-27 09:21:00,45.0,44.0,30.19,NE,40,0.0,5.0,95,0.01,,,1.00,,2013-04-27 14:21:00,
2013-04-27 09:31:00,46.0,45.0,30.19,NNE,25,0.0,6.0,95,0.01,,,1.00,,2013-04-27 14:31:00,
2013-04-27 09:41:00,46.0,45.0,30.19,NNE,25,0.0,6.0,95,0.01,,,1.00,,2013-04-27 14:41:00,
2013-04-27 09:52:00,46.0,45.0,30.18,NE,56,2.0,8.0,95,0.00,,,1.00,,2013-04-27 14:52:00,
2013-04-27 10:01:00,47.0,46.0,30.18,NE,46,2.0,7.0,95,0.00,,,1.00,,2013-04-27 15:01:00,
2013-04-27 10:11:00,47.0,46.0,30.18,NE,46,2.0,7.0,95,0.00,,,1.00,,2013-04-27 15:11:00,
2013-04-27 10:21:00,47.0,46.0,30.18,ENE,64,1.0,8.0,95,0.00,,,1.00,,2013-04-27 15:21:00,
2013-04-27 10:33:00,47.0,46.0,30.18,ENE,59,0.0,7.0,95,0.00,,,1.00,,2013-04-27 15:33:00,
2013-04-27 10:42:00,47.0,46.0,30.18,ENE,59,0.0,7.0,95,0.00,,,1.00,,2013-04-27 15:42:00,
2013-04-27 10:53:00,47.0,45.0,30.18,NE,53,2.0,8.0,94,0.00,,,1.00,,2013-04-27 15:53:00,
2013-04-27 11:03:00,47.0,45.0,30.18,ENE,71,3.0,8.0,94,0.00,,,1.00,,2013-04-27 16:03:00,
2013-04-27 11:13:00,47.0,45.0,30.18,ENE,71,3.0,8.0,94,0.00,,,1.00,,2013-04-27 16:13:00,
2013-04-27 11:22:00,48.0,46.0,30.19,ENE,68,1.0,5.0,94,0.00,,,1.00,,2013-04-27 16:22:00,
2013-04-27 11:32:00,48.0,46.0,30.18,NNE,26,0.0,5.0,93,0.00,,,1.00,,2013-04-27 16:32:00,
2013-04-27 11:42:00,48.0,46.0,30.18,NNE,26,0.0,5.0,93,0.00,,,1.00,,2013-04-27 16:42:00,
2013-04-27 11:53:00,48.0,46.0,30.18,ENE,57,1.0,6.0,92,0.00,,,1.00,,2013-04-27 16:53:00,
2013-04-27 12:02:00,48.0,45.0,30.18,East,85,2.0,7.0,91,0.00,,,1.00,,2013-04-27 17:02:00,
2013-04-27 12:12:00,48.0,45.0,30.18,East,85,2.0,7.0,91,0.00,,,1.00,,2013-04-27 17:12:00,
2013-04-27 12:22:00,48.0,45.0,30.18,ENE,65,1.0,7.0,91,0.00,,,1.00,,2013-04-27 17:22:00,
2013-04-27 12:32:00,48.0,45.0,30.18,NE,49,2.0,7.0,90,0.00,,,1.00,,2013-04-27 17:32:00,
2013-04-27 12:42:00,48.0,45.0,30.18,NE,49,2.0,7.0,90,0.00,,,1.00,,2013-04-27 17:42:00,
2013-04-27 12:53:00,48.0,45.0,30.18,NE,53,2.0,6.0,90,0.00,,,1.00,,2013-04-27 17:53:00,
2013-04-27 13:02:00,49.0,46.0,30.17,NE,42,1.0,4.0,89,0.00,,,1.00,,2013-04-27 18:02:00,
2013-04-27 13:12:00,49.0,46.0,30.17,NE,42,1.0,4.0,89,0.00,,,1.00,,2013-04-27 18:12:00,
2013-04-27 13:22:00,49.0,46.0,30.17,NE,41,0.0,6.0,89,0.00,,,0.99,,2013-04-27 18:22:00,
2013-04-27 13:32:00,49.0,46.0,30.17,NNE,25,0.0,6.0,89,0.00,,,0.99,,2013-04-27 18:32:00,
2013-04-27 13:42:00,49.0,46.0,30.17,NNE,25,0.0,6.0,89,0.00,,,0.99,,2013-04-27 18:42:00,
2013-04-27 13:52:00,49.0,46.0,30.17,North,5,0.0,7.0,88,0.00,,,0.99,,2013-04-27 18:52:00,
2013-04-27 14:02:00,49.0,46.0,30.16,North,355,1.0,6.0,88,0.00,,,0.99,,2013-04-27 19:02:00,
2013-04-27 14:11:00,49.0,46.0,30.16,North,355,1.0,6.0,88,0.00,,,0.99,,2013-04-27 19:11:00,
2013-04-27 14:21:00,49.0,46.0,30.16,NNW,347,0.0,5.0,88,0.00,,,0.96,,2013-04-27 19:21:00,
2013-04-27 14:32:00,50.0,46.0,30.16,North,5,1.0,7.0,87,0.00,,,0.96,,2013-04-27 19:32:00,
2013-04-27 14:42:00,50.0,46.0,30.16,North,5,1.0,7.0,87,0.00,,,0.96,,2013-04-27 19:42:00,
2013-04-27 14:53:00,50.0,46.0,30.16,NNE,28,0.0,6.0,86,0.00,,,0.96,,2013-04-27 19:53:00,
2013-04-27 15:02:00,50.0,46.0,30.16,NE,46,0.0,7.0,85,0.00,,,0.96,,2013-04-27 20:02:00,
2013-04-27 15:11:00,50.0,46.0,30.16,NE,46,0.0,7.0,85,0.00,,,0.96,,2013-04-27 20:11:00,
2013-04-27 15:21:00,51.0,47.0,30.15,NNE,17,0.0,6.0,85,0.00,,,0.94,,2013-04-27 20:21:00,
2013-04-27 15:32:00,52.0,47.0,30.14,NNW,342,0.0,5.0,83,0.00,,,0.94,,2013-04-27 20:32:00,
2013-04-27 15:42:00,52.0,47.0,30.14,NNW,342,0.0,5.0,83,0.00,,,0.94,,2013-04-27 20:42:00,
2013-04-27 15:52:00,52.0,47.0,30.14,NNW,342,0.0,5.0,83,0.00,,,0.94,,2013-04-27 20:52:00,
2013-04-27 16:02:00,52.0,47.0,30.14,North,360,3.0,6.0,82,0.00,,,0.94,,2013-04-27 21:02:00,
2013-04-27 16:11:00,52.0,47.0,30.14,North,360,3.0,6.0,82,0.00,,,0.94,,2013-04-27 21:11:00,
2013-04-27 16:21:00,51.0,46.0,30.14,NE,45,0.0,5.0,83,0.00,,,0.87,,2013-04-27 21:21:00,
2013-04-27 16:33:00,51.0,46.0,30.13,NNE,13,0.0,5.0,84,0.00,,,0.87,,2013-04-27 21:33:00,
2013-04-27 16:42:00,51.0,46.0,30.13,NNE,13,0.0,5.0,84,0.00,,,0.87,,2013-04-27 21:42:00,
2013-04-27 16:53:00,52.0,47.0,30.13,NNW,345,2.0,8.0,84,0.00,,,0.87,,2013-04-27 21:53:00,
2013-04-27 17:02:00,52.0,47.0,30.12,NNW,345,2.0,6.0,83,0.00,,,0.87,,2013-04-27 22:02:00,
2013-04-27 17:12:00,52.0,47.0,30.12,NNW,345,2.0,6.0,83,0.00,,,0.87,,2013-04-27 22:12:00,
2013-04-27 17:22:00,52.0,47.0,30.12,NNW,330,0.0,5.0,83,0.00,,,0.85,,2013-04-27 22:22:00,
2013-04-27 17:32:00,52.0,47.0,30.12,NNW,330,0.0,5.0,83,0.00,,,0.85,,2013-04-27 22:32:00,
2013-04-27 17:42:00,52.0,47.0,30.12,NNW,330,0.0,5.0,83,0.00,,,0.85,,2013-04-27 22:42:00,
2013-04-27 17:52:00,52.0,46.0,30.10,NNW,338,0.0,4.0,81,0.00,,,0.85,,2013-04-27 22:52:00,
2013-04-27 18:02:00,52.0,46.0,30.10,NNW,338,0.0,4.0,81,0.00,,,0.85,,2013-04-27 23:02:00,
2013-04-27 18:11:00,52.0,46.0,30.10,NNW,338,0.0,4.0,81,0.00,,,0.85,,2013-04-27 23:11:00,
2013-04-27 18:22:00,52.0,46.0,30.10,NNW,338,0.0,4.0,81,0.00,,,0.85,,2013-04-27 23:22:00,
2013-04-27 18:32:00,52.0,47.0,30.10,NNW,338,0.0,2.0,82,0.00,,,0.77,,2013-04-27 23:32:00,
2013-04-27 18:42:00,52.0,47.0,30.10,NNW,338,0.0,2.0,82,0.00,,,0.77,,2013-04-27 23:42:00,
2013-04-27 18:52:00,51.0,46.0,30.10,NNW,338,0.0,4.0,83,0.00,,,0.77,,2013-04-27 23:52:00,
2013-04-27 19:01:00,51.0,46.0,30.10,NNW,346,0.0,2.0,83,0.00,,,0.77,,2013-04-28 00:01:00,
2013-04-27 19:11:00,51.0,46.0,30.10,NNW,346,0.0,2.0,83,0.00,,,0.77,,2013-04-28 00:11:00,
2013-04-27 19:21:00,51.0,46.0,30.10,NNW,346,0.0,3.0,83,0.00,,,0.77,,2013-04-28 00:21:00,
2013-04-27 19:32:00,51.0,46.0,30.10,NNW,347,0.0,1.0,83,0.00,,,0.74,,2013-04-28 00:32:00,
2013-04-27 19:42:00,51.0,46.0,30.10,NNW,347,0.0,1.0,83,0.00,,,0.74,,2013-04-28 00:42:00,
2013-04-27 19:52:00,51.0,46.0,30.10,NNW,348,0.0,1.0,84,0.00,,,0.74,,2013-04-28 00:52:00,
2013-04-27 20:01:00,51.0,46.0,30.09,NNW,348,0.0,1.0,84,0.00,,,0.74,,2013-04-28 01:01:00,
2013-04-27 20:11:00,51.0,46.0,30.09,NNW,348,0.0,1.0,84,0.00,,,0.74,,2013-04-28 01:11:00,
2013-04-27 20:21:00,51.0,46.0,30.09,NNW,348,0.0,1.0,84,0.00,,,0.74,,2013-04-28 01:21:00,
2013-04-27 20:32:00,51.0,47.0,30.09,NNW,348,0.0,2.0,85,0.00,,,0.72,,2013-04-28 01:32:00,
2013-04-27 20:42:00,51.0,47.0,30.09,NNW,348,0.0,2.0,85,0.00,,,0.72,,2013-04-28 01:42:00,
2013-04-27 20:52:00,50.0,46.0,30.09,NNW,348,0.0,0.0,85,0.00,,,0.72,,2013-04-28 01:52:00,
2013-04-27 21:02:00,50.0,46.0,30.09,NNW,348,0.0,1.0,85,0.00,,,0.72,,2013-04-28 02:02:00,
2013-04-27 21:12:00,50.0,46.0,30.09,NNW,348,0.0,1.0,85,0.00,,,0.72,,2013-04-28 02:12:00,
2013-04-27 21:22:00,50.0,46.0,30.09,NNW,348,0.0,0.0,86,0.00,,,0.72,,2013-04-28 02:22:00,
2013-04-27 21:32:00,50.0,46.0,30.09,NNW,348,0.0,0.0,86,0.00,,,0.70,,2013-04-28 02:32:00,
2013-04-27 21:42:00,50.0,46.0,30.09,NNW,348,0.0,0.0,86,0.00,,,0.70,,2013-04-28 02:42:00,
2013-04-27 21:52:00,50.0,46.0,30.09,NNW,348,0.0,0.0,87,0.00,,,0.70,,2013-04-28 02:52:00,
2013-04-27 22:01:00,50.0,46.0,30.09,NNW,348,0.0,0.0,87,0.00,,,0.70,,2013-04-28 03:01:00,
2013-04-27 22:11:00,50.0,46.0,30.09,NNW,348,0.0,0.0,87,0.00,,,0.70,,2013-04-28 03:11:00,
2013-04-27 22:21:00,50.0,46.0,30.09,NNW,348,0.0,0.0,87,0.00,,,0.70,,2013-04-28 03:21:00,
2013-04-27 22:32:00,50.0,46.0,30.09,NNW,348,0.0,0.0,87,0.00,,,0.64,,2013-04-28 03:32:00,
2013-04-27 22:43:00,50.0,46.0,30.09,NNW,348,0.0,0.0,87,0.00,,,0.64,,2013-04-28 03:43:00,
2013-04-27 22:53:00,50.0,46.0,30.09,NNW,348,0.0,0.0,87,0.00,,,0.64,,2013-04-28 03:53:00,
2013-04-27 23:02:00,50.0,47.0,30.09,NNW,348,0.0,0.0,88,0.00,,,0.64,,2013-04-28 04:02:00,
2013-04-27 23:13:00,50.0,47.0,30.09,NNW,348,0.0,0.0,88,0.00,,,0.64,,2013-04-28 04:13:00,
2013-04-27 23:22:00,50.0,47.0,30.09,NNW,348,0.0,0.0,88,0.00,,,0.64,,2013-04-28 04:22:00,
2013-04-27 23:32:00,50.0,47.0,30.09,NNW,348,0.0,1.0,88,0.00,,,0.64,,2013-04-28 04:32:00,
2013-04-27 23:42:00,50.0,47.0,30.09,NNW,348,0.0,1.0,88,0.00,,,0.64,,2013-04-28 04:42:00,
2013-04-27 23:52:00,49.0,46.0,30.09,NNW,348,0.0,2.0,88,0.00,,,0.64,,2013-04-28 04:52:00,